Theta_e
298 297 299 300 299 299 300 301 304 310 309 310 310 311 310 310 309 310 312 311 309 310 310 311 312 312 311 311 311 312 311 309 311 312 309 309 310 312 311 313 315 308 305 306
297 298 300 300 300 300 299 300 300 305 311 307 306 308 309 309 309 310 312 312 313 311 310 311 311 311 310 311 311 312 311 310 309 311 309 309 311 310 311 310 310 312 309 309
297 300 300 300 300 300 300 298 302 302 307 306 307 308 308 309 309 311 312 311 312 313 311 312 313 313 310 310 311 313 313 311 310 312 312 310 311 311 310 311 310 311 310 305
297 298 300 300 300 299 300 299 301 299 304 302 306 307 307 308 309 308 309 311 311 312 313 313 314 311 310 309 309 310 312 314 314 314 312 311 310 311 311 312 311 312 310 308
298 300 300 300 300 299 300 298 299 300 300 302 305 307 307 308 306 307 308 307 306 305 310 309 312 310 311 312 309 309 308 311 308 310 313 313 313 313 310 311 311 311 308 308
298 299 299 300 300 300 300 300 300 299 301 301 304 306 308 307 307 303 305 306 306 306 305 304 304 304 304 306 308 307 307 307 308 309 308 306 306 309 311 312 310 310 312 308
296 299 298 298 300 300 300 299 300 300 303 304 304 303 306 307 308 306 304 305 306 304 304 304 304 303 303 304 304 304 306 305 303 307 306 309 303 301 303 304 300 300 299 299
293 293 295 298 299 300 300 300 300 300 303 302 302 302 302 307 307 302 303 302 304 305 304 303 305 304 305 303 304 304 304 304 307 310 307 306 302 302 302 305 300 298 297 297
296 293 293 298 298 299 300 300 300 301 301 302 300 301 301 303 302 301 299 302 303 304 303 305 307 308 308 306 304 303 303 302 309 306 311 310 302 300 301 301 302 298 299 299
296 296 292 295 298 299 299 299 299 300 300 300 300 302 301 300 300 301 299 298 300 300 302 303 303 304 303 304 304 303 303 303 308 307 305 303 301 299 301 305 302 297 299 299
296 296 293 296 298 298 298 299 299 299 299 298 300 301 300 300 300 301 299 300 299 299 300 302 302 301 302 300 300 302 302 303 303 304 303 305 299 299 301 299 297 296 296 296
295 295 294 293 297 298 298 298 299 299 299 297 297 298 300 300 300 300 299 299 299 299 299 297 298 295 292 298 300 299 302 301 302 301 302 299 299 299 299 299 296 295 295 295
296 295 294 294 296 298 298 298 299 298 298 298 298 298 300 300 300 300 300 300 301 300 299 296 295 298 294 296 294 295 296 297 297 297 298 297 296 297 298 298 296 294 294 293
295 295 295 296 297 298 299 298 298 298 298 296 295 298 298 299 300 300 300 300 300 299 299 295 293 297 294 294 295 294 295 295 295 295 296 295 294 294 294 294 294 294 293 292
296 296 296 296 296 296 297 297 297 297 297 294 294 296 298 298 299 299 299 299 299 298 296 294 296 293 293 287 290 289 290 293 294 294 294 294 291 292 293 293 292 292 291 291
295 295 295 295 296 296 296 296 297 296 297 296 292 293 295 298 298 298 298 298 298 296 296 294 295 295 293 290 290 287 287 289 291 291 292 292 290 290 290 291 290 290 290 289
293 293 294 294 294 295 296 295 295 296 296 295 292 292 293 295 296 296 295 296 296 295 295 295 294 295 294 286 290 285 286 287 289 289 290 288 288 288 288 288 288 288 287 287
293 292 292 294 294 295 295 294 295 296 295 295 291 291 292 293 293 293 294 294 295 293 294 294 292 294 292 290 284 284 285 286 287 288 289 289 286 286 286 286 285 285 285 284
292 292 292 293 293 293 293 294 294 293 294 293 291 292 292 292 292 292 293 294 289 292 288 291 292 291 289 283 283 283 284 285 284 284 285 284 285 284 284 284 283 283 283 282
292 292 291 291 291 291 291 292 293 292 292 292 289 289 288 290 291 291 291 291 288 285 291 292 288 285 279 279 281 282 282 283 284 284 283 282 282 282 281 281 281 281 281 281
290 291 290 290 290 291 290 289 286 288 282 289 289 289 288 290 288 290 289 288 284 283 288 288 287 287 278 279 280 280 281 281 282 282 282 281 281 281 281 281 280 280 280 280
283 287 290 289 289 289 281 273 283 284 287 288 288 288 288 289 291 288 288 284 282 284 285 282 284 276 278 278 279 279 280 280 280 280 280 279 279 279 279 279 279 279 279 279
289 290 290 288 287 281 279 280 279 286 287 288 288 283 288 289 290 285 285 280 282 287 281 282 275 278 278 279 279 279 279 279 278 278 279 279 279 278 278 279 278 278 278 278
289 289 285 284 279 280 280 281 282 283 285 287 288 287 287 288 285 281 282 284 282 280 278 279 272 279 279 279 279 278 278 278 278 278 278 278 278 278 278 277 277 277 277 277
286 286 281 280 282 282 282 282 282 282 284 286 287 286 287 285 282 279 281 282 281 279 279 276 279 279 279 279 278 278 278 277 277 277 277 277 276 276 277 277 276 276 276 276
283 280 280 280 283 282 280 279 280 281 283 285 285 282 282 282 281 282 280 280 279 278 274 279 279 279 278 277 277 277 277 276 276 276 276 276 276 276 276 276 276 275 275 275
281 277 278 277 278 277 277 277 278 280 281 285 285 285 284 280 280 280 280 279 279 278 278 278 278 278 277 276 276 276 275 275 276 276 276 276 276 275 275 275 276 275 275 275
Wind_Speed
15 16 15 17 22 29 25 10 4 14 30 9 7 14 16 7 4 3 3 4 4 7 9 6 6 10 2 3 9 14 4 5 4 6 3 3 4 6 6 5 5 2 3 4
16 13 14 19 21 27 11 6 7 12 34 8 9 10 12 1 6 4 3 4 1 3 7 6 5 6 2 3 4 15 8 3 4 4 4 1 6 5 4 4 3 6 6 3
16 13 16 21 22 24 22 6 3 3 12 9 18 16 16 20 4 2 4 3 4 4 3 1 7 3 2 2 3 3 4 3 6 9 5 5 6 8 7 5 3 4 4 7
16 16 16 21 20 29 6 4 2 4 3 3 6 14 13 18 6 2 2 2 4 7 4 3 6 3 3 5 4 3 3 4 3 2 4 4 4 5 9 12 6 6 6 10
19 16 17 20 20 24 7 4 3 4 2 7 5 11 10 22 8 6 3 3 2 2 6 3 7 7 4 4 4 3 3 3 2 0 2 4 3 3 6 4 4 3 9 4
19 18 21 21 20 21 9 10 9 6 4 2 5 5 8 11 14 1 2 8 6 5 6 14 14 16 16 4 8 3 3 5 3 3 2 4 5 6 7 5 2 4 7 6
20 19 21 22 20 18 16 14 12 4 2 0 2 7 6 12 20 11 4 7 5 11 32 26 18 24 20 15 11 6 5 5 2 3 2 3 0 3 1 5 3 3 9 12
23 21 20 22 20 18 17 17 10 4 2 1 3 6 4 16 9 4 6 5 8 38 9 4 4 3 4 7 7 6 4 3 2 5 4 1 2 3 5 5 1 2 11 11
26 23 21 19 22 19 16 13 9 5 2 3 4 4 4 4 6 4 4 17 32 10 3 4 5 6 4 4 3 3 4 4 2 3 5 9 2 3 2 3 2 9 17 11
26 24 21 18 19 21 17 11 9 3 3 6 6 3 2 4 5 4 6 10 5 7 3 3 3 3 4 7 9 5 3 2 7 5 2 2 2 4 2 4 3 16 19 20
28 22 20 16 15 18 19 14 6 5 3 9 5 5 4 7 5 3 8 6 2 2 3 3 3 3 3 4 3 5 5 5 3 3 3 4 8 4 5 4 19 22 21 18
26 17 17 13 14 15 16 13 1 4 5 7 17 20 13 10 8 15 4 3 4 4 4 2 3 2 2 5 3 1 3 3 5 2 2 3 17 2 5 20 26 21 18 14
22 17 16 14 12 11 12 14 4 10 6 8 10 14 17 12 11 8 5 3 3 4 6 4 2 5 2 3 2 3 4 2 4 4 3 7 7 11 13 19 20 16 14 11
20 17 15 14 12 9 10 11 4 3 5 3 8 14 18 15 9 7 3 12 11 12 9 6 3 3 1 1 3 3 1 3 5 3 6 13 9 11 14 16 14 13 11 7
21 19 16 14 12 11 9 9 7 4 3 3 2 15 17 16 12 15 15 15 14 9 5 4 2 3 3 2 2 3 7 2 2 3 8 6 6 10 14 16 13 10 6 4
18 17 17 16 13 8 3 5 11 8 7 4 2 5 13 17 13 15 14 13 11 9 6 3 4 4 3 3 2 3 5 6 3 6 8 11 17 14 11 9 7 5 3 2
18 16 12 13 17 12 8 6 8 5 5 5 3 2 5 10 10 11 14 13 9 7 4 4 3 3 4 2 3 5 9 13 14 17 18 14 12 9 8 5 4 2 2 2
18 16 13 7 8 7 9 11 8 7 7 6 3 1 3 6 5 4 6 5 6 9 4 3 3 3 4 3 5 10 11 11 12 9 4 11 14 10 7 4 2 1 1 3
16 15 11 6 4 4 6 5 6 9 5 4 3 1 1 3 4 4 4 5 3 3 2 2 2 1 3 3 7 7 5 5 11 12 11 11 8 7 4 2 1 1 3 5
14 9 4 4 7 10 6 2 3 3 7 6 3 1 1 3 2 3 3 5 2 2 1 2 3 2 4 6 8 8 8 7 11 11 9 6 5 3 2 1 2 4 7 9
11 10 6 12 11 6 4 4 5 6 4 5 4 5 2 4 3 2 3 1 1 3 2 2 1 2 1 6 8 8 8 7 8 6 6 4 2 2 3 4 7 9 11 14
13 8 9 6 6 3 5 2 4 4 2 4 2 4 4 3 3 4 3 2 3 2 1 3 1 2 7 9 9 9 8 7 6 5 4 1 3 7 10 12 13 15 17 19
4 0 3 4 4 5 4 2 3 1 4 3 2 2 2 2 3 5 2 4 1 2 3 2 3 6 10 10 9 8 6 3 1 2 5 7 8 10 13 15 15 18 19 19
3 3 3 2 4 2 1 1 0 2 4 3 3 3 2 2 3 1 4 0 3 3 2 4 2 11 12 11 8 6 3 2 4 5 7 8 10 11 12 14 15 18 19 19
5 5 4 4 2 4 4 3 2 5 3 2 2 2 1 1 3 1 3 3 1 4 4 2 15 16 14 10 6 3 3 4 5 6 7 9 11 13 15 15 16 17 18 19
5 8 3 11 3 6 8 11 6 10 3 1 1 1 2 2 3 2 3 6 5 2 1 14 19 16 10 6 4 4 3 4 6 8 10 11 13 15 16 15 15 17 19 21
4 4 7 7 2 3 6 9 11 11 5 1 2 1 4 1 3 2 2 2 1 11 18 16 12 9 6 4 2 2 4 5 7 9 10 11 12 14 16 18 17 20 22 24
Wind_Direction
332 322 320 321 323 329 302 262 247 192 193 161 188 185 185 155 158 144 160 127 120 156 161 146 177 191 261 344 158 184 180 111 160 194 254 221 177 180 164 144 211 227 141 257
341 329 330 327 334 340 300 253 255 228 174 171 179 199 204 11 165 179 151 148 187 126 154 136 165 169 108 1 154 158 181 162 94 13 2 314 216 199 169 125 84 188 142 228
342 330 332 340 342 336 302 272 268 254 174 184 188 171 200 205 196 114 153 154 116 112 127 57 147 118 31 36 101 93 106 125 161 189 190 140 182 195 191 152 133 175 209 154
345 336 333 341 340 351 319 248 280 314 142 204 136 175 176 186 174 139 70 85 167 152 136 117 123 109 120 42 12 42 98 139 135 93 116 134 167 175 178 206 195 183 184 174
357 359 349 346 347 358 327 303 313 342 37 131 109 165 181 188 175 160 226 163 126 79 137 173 179 136 156 165 40 48 356 141 92 51 120 122 146 127 161 153 166 194 144 204
359 356 355 351 346 350 345 326 316 323 347 127 146 184 179 185 160 154 73 160 116 98 130 98 83 83 78 102 132 123 122 134 117 222 1 66 320 208 188 175 100 155 192 186
356 352 352 353 347 342 334 326 321 321 326 29 150 161 166 196 193 168 131 165 110 134 123 109 87 68 67 66 52 50 144 126 106 152 99 212 286 321 47 103 37 104 93 126
352 347 348 350 351 351 340 337 337 309 322 17 84 124 166 169 166 103 131 160 167 144 116 89 85 35 37 23 41 34 12 111 107 148 195 9 295 199 153 163 245 142 119 108
353 346 346 350 352 351 337 335 327 317 322 16 99 79 89 147 135 109 123 126 138 130 84 81 165 205 145 193 130 41 57 59 110 124 191 208 115 153 123 130 253 167 135 129
350 345 345 348 353 1 354 337 337 329 20 17 23 44 71 86 90 103 126 138 119 121 140 132 138 163 150 167 161 156 129 91 194 169 166 275 248 172 149 140 189 149 152 160
347 346 344 351 351 350 351 346 28 19 68 31 71 93 77 81 57 119 154 112 87 116 90 123 151 148 174 111 145 165 152 135 154 128 121 216 174 104 161 163 138 151 151 153
341 349 344 338 337 343 349 359 8 62 75 95 77 80 87 100 86 119 61 98 121 158 115 132 129 101 107 148 149 149 134 159 148 133 155 80 158 99 150 153 147 152 150 146
353 357 352 348 341 349 348 353 334 117 94 62 76 61 77 92 115 109 112 81 97 92 88 125 123 91 119 122 223 105 14 103 95 98 348 112 95 122 138 158 149 147 149 147
7 3 2 2 6 2 342 7 12 82 75 81 30 85 72 76 129 86 143 136 120 106 86 78 85 106 55 115 118 106 235 90 121 81 74 105 105 130 142 146 151 154 156 166
17 17 12 7 6 355 358 43 37 43 79 125 76 72 77 82 106 110 109 122 111 69 61 54 81 95 91 23 71 48 351 107 132 192 153 117 126 140 153 155 154 161 180 184
11 15 14 359 328 322 6 34 35 49 106 95 60 50 54 88 88 97 94 91 72 77 69 80 73 63 89 85 82 12 50 72 154 142 147 131 134 140 143 152 142 151 175 198
354 351 3 18 25 43 61 56 344 0 56 83 95 41 18 69 74 72 59 58 58 68 88 61 83 54 48 86 128 128 85 84 102 115 118 108 132 127 135 145 152 175 213 227
335 339 327 340 3 21 46 49 41 26 70 68 87 44 26 26 39 60 43 59 49 39 76 56 63 55 52 77 98 122 103 91 95 106 118 131 136 133 130 131 136 183 245 273
332 326 328 321 345 10 353 4 19 32 57 100 85 95 122 45 58 66 60 45 61 39 87 49 82 55 67 38 135 125 115 115 119 112 115 122 127 118 115 112 65 287 281 285
342 343 351 22 357 334 333 321 352 25 33 39 74 33 57 38 71 64 76 22 59 70 25 97 72 86 114 93 115 119 106 113 146 131 110 111 103 98 78 11 333 320 307 306
7 4 3 333 339 344 1 39 49 350 24 28 46 58 96 41 82 90 47 118 24 82 270 106 73 141 131 133 130 121 107 97 110 115 111 103 85 23 335 312 312 305 302 302
323 315 317 329 342 5 64 331 338 47 55 15 42 34 58 61 72 85 25 96 42 174 196 78 311 239 145 142 136 123 112 105 103 98 86 56 333 316 314 317 311 309 306 303
18 42 312 355 345 30 71 336 325 58 12 18 38 37 53 84 79 74 84 71 174 135 50 207 216 147 149 147 141 129 123 121 65 345 330 323 315 309 305 303 303 299 297 300
7 351 357 71 343 36 159 224 209 344 347 21 70 59 57 54 54 106 84 290 72 50 38 243 227 162 144 143 146 162 179 286 305 305 307 305 302 298 297 297 300 302 303 302
28 21 32 26 15 15 15 11 24 359 333 17 87 71 60 51 79 65 101 50 232 196 221 209 153 151 154 158 172 209 263 288 297 301 304 309 312 311 311 312 311 310 308 308
37 41 31 352 36 13 7 10 4 0 316 289 251 126 80 258 144 89 199 134 210 224 171 138 147 152 163 180 210 239 265 298 320 325 324 321 317 314 317 320 317 313 310 310
44 31 30 12 352 341 345 347 345 346 351 332 308 161 214 83 60 72 10 143 103 125 131 140 151 162 178 189 203 281 313 323 320 316 318 320 319 318 317 314 314 310 310 311